Location: Gazon
(48.1318°N, 1.2708°W)
Time: 02:34:53
(UTC+00:00)

Cosmos 1937 Rocket - Pass Details

Date: 18 September 2020
Orbit: 747 x 779 km, 74.0° (Epoch: 29 October)

Event Time Altitude Azimuth Distance (km) Brightness Sun altitude
Rises 18:53:15 0° 191° (S) 3,233 6.7 -7.9°
Reaches altitude 10° 18:55:39 10° 188° (S) 2,307 6.0 -8.3°
Maximum altitude 19:00:49 63° 108° (ESE) 852 3.5 -9.1°
Drops below altitude 10° 19:05:58 10° 28° (NNE) 2,302 5.8 -10.0°
Sets 19:08:21 0° 26° (NNE) 3,227 6.6 -10.4°
